Content
SEND FEEDBACK

Daily
Averages
Monthly
Summary
United States of America

BAYSIDE, NEW YORK


Home > North America > United States > New York
Elevation: 11 feet     Latitude: 40 46N     Longitude: 073 54W

WEATHER
 
SELECT A DAY
Number of Records: 191,220;   Date Range: 1/1/95 - 8/30/14
 
SHARE

PRINT THIS DATA

[ ← Previous Day ]
WEATHER ALMANAC - MARCH 22, 2013
[ Next Day → ]
[ °C ]   °F
Weather ElementAverageHighLow
Temperature35.8 °F41 °F (3:51 pm)30 °F (5:51 am)
Dewpoint15.1 °F19.9 °F (11:51 pm)10.9 °F (3:51 am)
Humidity43.3 %56 % (6:51 am)33 % (3:51 pm)
Barometer29.79 in29.88 in (11:51 pm)29.74 in (3:51 am)
Wind Speed13.8 mph19.6 mph (5:51 pm)
Wind Gust29.9 mph (6:51 pm)
Weather ElementAverage
Visibility10 mi
Wind DirectionWNW (282.2 °)

Weather ElementTotal
Precipitation---
Heating Degree Days29.5 (Base 65)
Averaged from 23 records on March 22, 2013
WEATHER CONDITIONS BREAKOUT
WIND DIRECTION BREAKOUT
WEATHER BY HOUR - MARCH 22, 2013
[ °C ]   °F
Local TimeTemperatureDewpointHumidityBarometerVisibilityWind DirectionWind SpeedGust SpeedPrecipitationEventsConditions
1:51 AM30.9 °F12.0 °F46 %29.76 in10.0 miWNW (290°)10.4 mphPartly Cloudy
2:51 AM30.9 °F12.0 °F46 %29.75 in10.0 miWNW (290°)13.8 mphOvercast
3:51 AM30.9 °F10.9 °F43 %29.74 in10.0 miWNW (300°)10.4 mphMostly Cloudy
4:51 AM30.9 °F12.0 °F46 %29.74 in10.0 miWest (270°)12.7 mph19.6 mphOvercast
5:51 AM30.0 °F15.1 °F54 %29.74 in10.0 miWest (280°)10.4 mphScattered Clouds
6:51 AM30.0 °F16.0 °F56 %29.76 in10.0 miWest (280°)11.5 mphScattered Clouds
7:51 AM30.9 °F16.0 °F54 %29.78 in10.0 miWNW (290°)13.8 mphScattered Clouds
8:51 AM32.0 °F16.0 °F52 %29.79 in10.0 miWest (280°)9.2 mphPartly Cloudy
9:51 AM33.1 °F15.1 °F48 %29.80 in10.0 miWest (280°)13.8 mph21.9 mphPartly Cloudy
10:51 AM35.1 °F14.0 °F42 %29.80 in10.0 miWest (260°)13.8 mphScattered Clouds
11:51 AM37.0 °F14.0 °F39 %29.80 in10.0 miWest (260°)15.0 mphMostly Cloudy
12:51 PM37.9 °F14.0 °F38 %29.79 in10.0 miWest (280°)13.8 mph27.6 mphMostly Cloudy
1:51 PM37.9 °F16.0 °F41 %29.78 in10.0 miNW (310°)17.3 mph26.5 mphMostly Cloudy
2:51 PM39.0 °F16.0 °F39 %29.78 in10.0 miNW (320°)17.3 mph23.0 mphMostly Cloudy
3:51 PM41.0 °F14.0 °F33 %29.78 in10.0 miWest (280°)17.3 mph26.5 mphMostly Cloudy
4:51 PM41.0 °F15.1 °F35 %29.78 in10.0 miWest (270°)15.0 mph23.0 mphMostly Cloudy
5:51 PM41.0 °F15.1 °F35 %29.79 in10.0 miWNW (290°)19.6 mph25.3 mphMostly Cloudy
6:51 PM41.0 °F15.1 °F35 %29.81 in10.0 miWNW (290°)19.6 mph29.9 mphMostly Cloudy
7:51 PM39.9 °F16.0 °F38 %29.84 in10.0 miWNW (290°)12.7 mphScattered Clouds
8:51 PM39.9 °F17.1 °F40 %29.85 in10.0 miWNW (290°)13.8 mphMostly Cloudy
9:51 PM39.0 °F17.1 °F41 %29.86 in10.0 miWest (260°)12.7 mphPartly Cloudy
10:51 PM37.9 °F18.0 °F45 %29.87 in10.0 miWest (260°)11.5 mph21.9 mphPartly Cloudy
11:51 PM37.0 °F19.9 °F50 %29.88 in10.0 miWest (270°)11.5 mph20.7 mphScattered Clouds
Hourly data recorded from KLGA, located miles away from Bayside, New York







STORIES FROM OUR PARTNERS